TimeAEST,TemperatureF,Dew PointF,Humidity,Sea Level PressureIn,VisibilityMPH,Wind Direction,Wind SpeedMPH,Gust SpeedMPH,PrecipitationIn,Events,Conditions,WindDirDegrees,DateUTC
12:00 AM,67,56,58,30.13,,SE,19.6,,,,,130,2013-06-22 14:00:00
12:00 AM,66.2,55.4,68,30.12,-9999.0,SE,19.6,-,N/A,,Unknown,130,2013-06-22 14:00:00
12:30 AM,66.2,55.4,68,30.12,-9999.0,ESE,19.6,-,N/A,,Unknown,120,2013-06-22 14:30:00
1:00 AM,66.2,59.0,78,30.12,-9999.0,SSE,16.1,-,N/A,,Unknown,150,2013-06-22 15:00:00
1:30 AM,66.2,59.0,78,30.12,-9999.0,SSE,18.4,-,N/A,,Unknown,150,2013-06-22 15:30:00
2:00 AM,66.2,59.0,78,30.09,-9999.0,SSE,18.4,-,N/A,,Unknown,150,2013-06-22 16:00:00
2:30 AM,64.4,57.2,77,30.09,-9999.0,SSE,18.4,-,N/A,,Unknown,150,2013-06-22 16:30:00
3:00 AM,65,58,73,30.12,,SSE,18.4,,,,,150,2013-06-22 17:00:00
3:00 AM,64.4,59.0,83,30.12,-9999.0,SSE,18.4,-,N/A,,Unknown,150,2013-06-22 17:00:00
3:30 AM,64.4,57.2,77,30.12,-9999.0,SSE,19.6,-,N/A,,Unknown,150,2013-06-22 17:30:00
4:00 AM,64.4,57.2,77,30.12,-9999.0,SSE,18.4,-,N/A,,Unknown,150,2013-06-22 18:00:00
4:30 AM,64.4,57.2,77,30.12,-9999.0,SSE,19.6,-,N/A,,Unknown,150,2013-06-22 18:30:00
5:00 AM,64.4,55.4,73,30.12,-9999.0,SSE,19.6,-,N/A,,Unknown,150,2013-06-22 19:00:00
5:30 AM,64.4,55.4,73,30.12,-9999.0,SSE,18.4,-,N/A,,Unknown,150,2013-06-22 19:30:00
6:00 AM,64,55,66,30.15,,SSE,18.4,,,,,150,2013-06-22 20:00:00
6:00 AM,64.4,55.4,73,30.15,-9999.0,SSE,18.4,-,N/A,,Unknown,150,2013-06-22 20:00:00
6:30 AM,64.4,57.2,77,30.15,-9999.0,SSE,18.4,-,N/A,,Unknown,150,2013-06-22 20:30:00
7:00 AM,64.4,57.2,77,30.15,-9999.0,SSE,18.4,-,N/A,,Unknown,150,2013-06-22 21:00:00
7:30 AM,64.4,59.0,83,30.15,-9999.0,SSE,18.4,-,N/A,,Unknown,150,2013-06-22 21:30:00
8:00 AM,66.2,57.2,73,30.18,-9999.0,SSE,20.7,-,N/A,,Unknown,150,2013-06-22 22:00:00
8:30 AM,66.2,59.0,78,30.18,-9999.0,SSE,19.6,-,N/A,,Unknown,150,2013-06-22 22:30:00
9:00 AM,67,58,66,30.20,,SSE,19.6,,,,,150,2013-06-22 23:00:00
9:00 AM,66.2,59.0,78,30.18,-9999.0,SSE,19.6,-,N/A,,Unknown,150,2013-06-22 23:00:00
9:30 AM,68.0,59.0,73,30.18,-9999.0,SSE,19.6,-,N/A,,Unknown,150,2013-06-22 23:30:00
10:00 AM,68.0,59.0,73,30.18,-9999.0,SSE,19.6,-,N/A,,Unknown,150,2013-06-23 00:00:00
10:30 AM,66.2,57.2,73,30.18,-9999.0,SSE,19.6,-,N/A,,Unknown,150,2013-06-23 00:30:00
11:00 AM,68.0,60.8,78,30.18,-9999.0,SSE,20.7,-,N/A,,Unknown,150,2013-06-23 01:00:00
11:30 AM,68.0,60.8,78,30.18,-9999.0,SSE,19.6,-,N/A,,Unknown,150,2013-06-23 01:30:00
12:00 PM,67,60,71,30.17,,SSE,20.7,,,,,150,2013-06-23 02:00:00
12:00 PM,68.0,59.0,73,30.15,-9999.0,SSE,20.7,-,N/A,,Unknown,150,2013-06-23 02:00:00
12:30 PM,68.0,59.0,73,30.15,-9999.0,SSE,19.6,-,N/A,,Unknown,150,2013-06-23 02:30:00
1:00 PM,68.0,62.6,83,30.15,-9999.0,SE,19.6,-,N/A,,Unknown,140,2013-06-23 03:00:00
1:30 PM,68.0,60.8,78,30.12,-9999.0,SE,18.4,-,N/A,,Unknown,140,2013-06-23 03:30:00
2:00 PM,68.0,60.8,78,30.12,-9999.0,SE,15.0,-,N/A,,Unknown,140,2013-06-23 04:00:00
2:30 PM,68.0,59.0,73,30.09,-9999.0,SE,15.0,-,N/A,,Unknown,140,2013-06-23 04:30:00
3:00 PM,68,59,65,30.12,,SE,15.0,,,,,130,2013-06-23 05:00:00
3:00 PM,68.0,59.0,73,30.09,-9999.0,SE,15.0,-,N/A,,Unknown,130,2013-06-23 05:00:00
3:30 PM,68.0,57.2,68,30.09,-9999.0,ESE,13.8,-,N/A,,Unknown,120,2013-06-23 05:30:00
4:00 PM,68.0,59.0,73,30.09,-9999.0,ESE,16.1,-,N/A,,Unknown,120,2013-06-23 06:00:00
4:30 PM,66.2,57.2,73,30.09,-9999.0,ESE,16.1,-,N/A,,Unknown,120,2013-06-23 06:30:00
5:00 PM,66.2,57.2,73,30.12,-9999.0,ESE,16.1,-,N/A,,Unknown,110,2013-06-23 07:00:00
5:30 PM,66.2,57.2,73,30.12,-9999.0,ESE,15.0,-,N/A,,Unknown,110,2013-06-23 07:30:00
6:00 PM,66,58,67,30.13,,ESE,16.1,,,,,120,2013-06-23 08:00:00
6:00 PM,66.2,57.2,73,30.12,-9999.0,ESE,16.1,-,N/A,,Unknown,120,2013-06-23 08:00:00
6:30 PM,66.2,57.2,73,30.12,-9999.0,ESE,15.0,-,N/A,,Unknown,110,2013-06-23 08:30:00
7:00 PM,66.2,57.2,73,30.12,-9999.0,SE,15.0,-,N/A,,Unknown,130,2013-06-23 09:00:00
7:30 PM,66.2,57.2,73,30.12,-9999.0,SE,16.1,-,N/A,,Unknown,130,2013-06-23 09:30:00
8:00 PM,66.2,55.4,68,30.15,-9999.0,SE,18.4,-,N/A,,Unknown,130,2013-06-23 10:00:00
8:30 PM,66.2,55.4,68,30.15,-9999.0,SE,17.3,-,N/A,,Unknown,130,2013-06-23 10:30:00
9:00 PM,66,54,56,30.17,,SE,16.1,,,,,130,2013-06-23 11:00:00
9:00 PM,66.2,53.6,64,30.15,-9999.0,SE,16.1,-,N/A,,Unknown,130,2013-06-23 11:00:00
9:30 PM,66.2,53.6,64,30.15,-9999.0,SE,16.1,-,N/A,,Unknown,140,2013-06-23 11:30:00
10:00 PM,66.2,53.6,64,30.15,-9999.0,SE,15.0,-,N/A,,Unknown,140,2013-06-23 12:00:00
10:30 PM,66.2,53.6,64,30.15,-9999.0,SE,16.1,-,N/A,,Unknown,140,2013-06-23 12:30:00
11:00 PM,66.2,53.6,64,30.15,-9999.0,SE,15.0,-,N/A,,Unknown,140,2013-06-23 13:00:00
11:30 PM,66.2,55.4,68,30.15,-9999.0,SSE,16.1,-,N/A,,Unknown,160,2013-06-23 13:30:00